Temperature
29 29 29 30 31 31 32 32 32 32 34 33 32 32 32 32 31 30 28 27 25 23 22 21 20 19 18 18 18 18 17 17 17 17 18 18 17 17 17 17 17 17 17 17
29 29 30 32 32 32 32 31 31 32 33 33 32 32 32 31 30 29 28 27 25 23 22 20 19 19 18 18 18 18 17 17 17 17 17 17 17 17 17 17 17 17 17 17
29 30 32 32 31 31 31 31 31 32 32 33 32 31 30 29 29 29 28 27 26 24 22 21 19 19 18 18 18 17 17 17 17 17 17 17 17 17 17 17 17 17 17 17
30 31 32 32 31 31 31 32 32 32 31 31 31 29 28 28 28 28 28 27 26 24 23 21 20 19 18 18 18 17 17 17 17 17 17 17 17 17 17 17 17 17 17 17
30 31 31 31 32 32 32 33 32 32 31 30 29 29 29 28 27 27 28 27 26 24 23 21 20 19 18 18 18 17 17 17 17 17 17 17 17 17 17 17 17 17 17 17
31 33 33 32 33 33 32 32 31 31 30 28 28 28 28 29 28 28 29 28 26 25 23 21 20 19 18 18 18 17 17 17 17 17 17 17 17 17 17 17 17 17 17 17
30 31 33 33 32 32 32 30 29 28 27 26 26 27 28 30 30 31 30 28 26 25 23 21 20 19 18 18 18 17 17 17 17 17 17 17 17 17 17 17 17 17 17 17
29 30 32 32 32 31 31 31 28 27 27 25 24 24 26 30 30 31 30 28 26 25 23 22 20 19 18 18 18 17 17 17 17 17 17 17 17 17 17 17 17 17 17 17
30 30 33 33 33 32 31 31 32 30 29 27 26 25 26 29 29 30 30 28 27 25 24 22 21 19 19 18 18 17 17 17 17 17 17 17 17 17 17 17 17 17 17 17
31 30 32 33 33 32 32 32 31 30 28 27 27 26 25 25 28 29 29 28 27 26 24 22 21 20 19 18 18 17 17 17 17 17 17 17 17 17 17 17 17 17 17 17
31 29 30 31 31 31 31 31 30 30 30 28 26 25 25 25 26 28 29 28 27 26 25 23 21 20 19 18 18 17 17 17 17 17 17 17 17 17 17 17 17 17 17 17
31 30 29 30 32 33 32 31 30 29 28 29 28 26 26 25 26 28 29 28 27 26 25 23 22 20 19 19 18 18 17 17 17 17 17 17 17 17 17 17 17 17 17 17
29 28 27 28 30 31 31 31 31 30 29 29 28 26 27 27 27 28 29 28 27 26 25 23 22 21 20 19 18 18 17 17 17 17 17 17 17 17 17 17 17 17 17 17
28 27 27 27 28 28 28 29 30 30 29 29 29 27 27 27 26 27 27 27 26 25 24 23 22 21 20 19 19 18 18 17 17 17 17 17 17 16 16 16 17 17 17 17
28 27 27 28 29 28 27 27 27 28 29 29 29 28 27 26 26 26 27 26 26 25 24 23 22 21 20 20 19 19 18 18 17 17 17 17 17 16 16 16 16 16 16 16
27 26 26 27 28 28 27 27 27 27 28 29 30 29 29 28 27 27 27 26 25 24 24 23 22 21 20 20 19 19 18 18 18 17 17 17 16 16 16 16 16 16 16 16
26 25 25 25 27 27 26 27 27 27 28 29 28 29 28 27 26 26 26 25 24 24 23 22 21 21 20 19 19 19 18 18 18 17 17 16 16 16 16 16 16 16 16 16
25 24 24 25 25 24 27 29 29 28 29 29 29 28 28 27 26 25 24 24 24 23 22 22 21 20 20 19 19 18 18 18 17 17 17 16 16 16 16 16 16 16 15 15
25 24 24 24 24 25 27 28 28 28 27 27 27 27 26 26 25 24 24 23 23 22 22 21 20 20 19 19 19 18 18 17 17 17 16 16 16 16 15 15 15 15 15 14
25 24 23 23 23 23 26 27 28 27 25 25 25 24 24 25 24 23 22 21 21 20 20 20 19 19 19 18 18 18 17 17 16 16 16 16 16 15 15 15 14 14 14 13
23 22 22 22 22 24 25 26 26 24 23 23 23 23 22 22 22 20 20 19 19 19 18 18 18 18 17 17 17 17 16 16 16 16 15 15 15 14 14 14 13 13 13 13
22 21 21 22 22 23 24 24 23 22 22 22 22 21 21 20 19 19 18 17 17 17 17 17 17 16 16 16 16 16 15 15 15 15 14 14 14 13 13 13 13 13 13 13
21 21 21 21 21 22 21 21 21 21 21 21 21 20 20 19 18 17 16 16 15 15 15 15 15 15 15 15 15 15 14 14 14 13 13 13 13 13 12 12 12 12 12 12
21 21 21 21 21 21 20 20 20 20 19 19 19 19 19 18 17 16 15 15 14 14 14 14 14 14 13 13 13 13 13 13 13 12 12 12 12 11 11 11 11 11 11 11
20 19 19 20 20 20 19 19 19 18 18 18 18 18 17 16 16 15 14 13 13 13 13 13 13 12 12 12 12 12 12 12 12 12 11 11 11 11 11 11 10 10 10 10
19 18 18 18 18 18 17 17 17 17 17 16 16 16 15 15 14 13 13 12 12 12 12 11 11 11 11 11 11 11 11 11 11 11 11 10 10 10 10 10 9 9 9 9
Wind_Speed
16 15 16 17 18 19 18 18 16 12 9 10 12 10 7 5 5 5 8 9 11 12 12 11 11 11 12 11 11 11 11 10 9 7 6 5 5 5 5 5 7 7 7 6
17 20 21 20 19 17 17 17 17 13 11 12 14 11 5 3 4 5 7 10 12 13 13 13 12 12 12 12 11 11 12 12 10 8 6 5 6 5 5 5 6 7 7 7
22 20 18 18 19 18 17 16 16 15 14 14 14 11 5 3 3 5 7 9 12 14 14 14 13 12 12 12 12 11 12 12 11 10 7 6 5 5 5 6 5 5 7 6
21 22 20 16 16 17 16 16 16 16 15 13 11 10 5 5 5 7 8 9 11 13 14 14 13 13 12 12 11 10 11 10 10 10 9 10 8 7 7 6 5 6 6 6
20 20 20 20 17 16 17 16 15 15 14 14 12 12 6 5 4 6 9 11 11 13 14 14 13 12 12 12 11 11 11 10 10 10 10 9 8 6 6 7 8 6 5 5
21 19 18 18 17 16 16 16 15 13 12 13 13 12 8 5 8 9 9 12 12 13 14 13 13 12 11 11 10 11 11 11 11 10 10 9 9 8 8 8 8 6 5 5
22 21 19 16 16 16 15 13 12 12 9 9 10 9 6 5 5 7 10 13 13 13 13 13 13 13 12 12 12 12 12 12 11 11 10 9 9 9 9 9 8 7 6 5
17 16 20 19 17 15 15 16 13 13 9 5 3 6 6 3 3 6 10 12 13 13 13 13 13 13 12 12 12 12 12 11 12 11 9 8 9 7 7 8 7 7 5 6
14 12 13 15 17 17 17 16 17 16 15 12 7 6 6 2 3 4 11 13 12 13 14 14 13 13 12 12 11 12 11 11 11 10 9 8 9 8 7 8 7 6 5 7
18 14 10 8 10 15 17 15 10 11 12 12 7 2 3 5 2 5 8 12 12 13 14 15 14 13 12 12 11 11 11 10 10 9 9 9 8 7 7 7 7 6 6 7
16 15 14 10 11 13 13 15 13 10 10 11 8 2 2 7 8 4 8 13 13 14 15 15 14 13 13 13 12 11 11 9 9 9 8 8 8 8 7 6 6 6 6 7
12 13 14 14 12 14 14 14 14 11 11 11 10 2 4 8 8 6 7 12 13 13 14 16 15 14 14 14 13 12 11 11 10 9 9 8 8 8 8 7 7 7 7 7
6 8 13 14 14 13 12 12 13 12 11 12 12 2 4 5 5 2 5 11 13 13 14 15 15 14 13 13 12 12 12 12 11 10 10 9 9 8 8 7 7 7 6 6
5 10 13 14 5 5 9 13 14 13 12 12 11 2 2 2 3 1 2 8 12 13 13 14 13 12 12 12 11 12 12 11 11 11 10 10 10 9 8 7 7 7 6 6
8 13 15 17 12 8 8 12 15 16 15 14 11 6 4 5 3 3 5 8 11 14 14 14 13 12 11 11 11 11 11 10 10 11 10 10 9 8 8 7 7 6 6 6
8 11 13 15 15 12 11 12 14 17 16 16 14 9 3 3 3 4 7 9 10 13 13 13 13 13 12 12 11 10 10 10 9 10 9 9 9 9 8 7 7 6 6 5
8 9 13 15 15 15 16 14 14 15 15 15 14 8 1 2 3 2 4 8 8 10 12 13 12 12 11 10 10 10 10 10 10 9 9 9 8 9 8 8 7 7 6 6
8 8 8 13 14 18 13 11 11 12 11 10 8 6 3 2 0 2 3 5 7 7 9 11 12 12 11 11 11 10 10 10 10 10 9 9 9 9 8 8 7 7 6 7
10 9 10 12 15 16 15 11 10 11 8 9 9 7 6 5 1 3 5 6 7 6 8 9 9 11 11 11 11 11 10 10 10 9 9 9 10 9 9 8 8 8 8 9
11 8 10 12 13 13 8 6 7 7 5 9 10 9 7 6 3 2 7 9 10 10 10 10 10 10 10 10 11 12 11 11 10 10 10 9 9 10 10 9 9 9 9 10
10 9 12 14 15 11 7 9 7 7 3 10 9 9 8 5 3 5 9 11 11 11 12 11 11 11 10 11 12 12 11 11 11 11 11 11 11 11 11 10 9 9 10 11
7 7 9 11 13 9 10 7 5 5 8 8 8 7 6 6 7 9 11 12 12 13 13 13 12 13 11 12 13 14 13 12 13 13 13 12 11 11 12 11 10 10 10 10
4 3 4 4 4 4 7 7 7 7 7 7 7 5 3 4 6 10 11 12 12 13 13 13 15 15 13 12 14 16 13 12 14 14 13 13 13 12 10 10 10 8 7 7
3 4 5 5 5 6 8 8 8 8 8 7 6 3 1 5 8 11 12 12 12 13 14 14 16 16 14 14 14 14 13 13 14 14 13 12 12 12 11 9 9 9 7 7
4 4 6 8 6 7 7 9 8 7 7 6 4 3 4 9 11 14 13 13 13 13 13 14 15 16 15 14 14 14 13 13 14 13 12 12 12 13 12 12 11 11 10 9
3 3 5 5 5 4 5 7 7 6 5 4 5 6 7 10 13 15 14 14 14 14 14 15 16 16 15 15 14 13 12 11 11 11 10 10 9 10 10 11 12 16 13 16
Wind_Direction
223 233 241 244 247 255 272 285 288 285 285 281 281 274 252 225 206 174 164 158 156 156 150 150 153 152 150 153 154 152 153 157 156 161 169 167 161 159 148 146 152 161 162 162
232 233 243 254 260 263 268 274 280 285 286 279 281 286 274 247 223 174 181 166 159 154 153 155 158 160 158 161 163 160 164 164 169 175 174 172 161 168 157 146 152 162 158 166
232 242 240 242 255 262 265 268 274 281 283 281 284 282 276 229 214 184 191 174 160 159 160 159 163 166 164 166 171 172 169 168 175 174 166 164 155 162 148 150 163 159 161 167
239 247 255 252 251 257 262 265 270 277 280 281 289 282 241 214 212 201 195 169 163 158 157 158 163 168 170 170 172 169 169 171 173 169 169 168 170 170 163 160 154 158 166 161
241 240 247 252 253 258 266 272 274 276 280 281 283 279 248 178 207 211 192 160 165 159 157 159 166 168 168 169 171 171 170 174 177 178 177 175 173 168 157 148 149 164 167 162
256 253 243 250 254 251 260 268 271 272 274 271 272 272 268 195 184 189 169 153 159 153 152 156 161 163 166 167 168 170 170 175 179 181 182 182 175 167 157 157 161 171 164 170
249 252 251 247 255 251 241 248 259 255 248 260 306 286 260 161 161 158 149 150 152 150 152 156 158 163 166 168 170 170 172 176 179 182 183 182 175 169 164 166 172 174 168 169
238 238 237 233 236 252 247 242 248 266 271 273 314 283 289 112 126 143 141 141 145 152 154 157 160 161 166 168 168 169 171 174 177 180 180 175 173 174 175 177 171 182 176 164
254 249 236 222 222 232 249 250 253 260 265 265 224 221 246 190 155 147 138 141 150 157 155 156 157 160 163 166 166 163 163 168 172 174 172 172 176 177 172 168 174 177 167 153
257 277 264 219 224 229 240 254 261 266 278 283 276 244 341 303 235 161 154 150 151 155 155 153 154 159 159 161 159 157 157 162 167 167 172 175 176 170 164 170 178 172 163 146
245 261 268 246 219 237 227 240 255 271 272 277 283 268 196 258 284 222 172 155 155 158 155 154 155 156 155 157 161 162 159 160 167 172 175 171 171 168 165 175 170 165 153 152
241 249 258 259 248 239 246 236 238 250 267 276 282 257 227 238 246 229 172 149 150 152 151 152 153 154 158 162 165 166 164 167 172 172 171 169 166 166 169 172 163 159 158 161
295 260 252 253 253 242 247 245 246 248 259 269 279 232 202 239 253 219 144 140 143 146 147 148 149 154 160 163 164 165 168 171 174 173 170 167 167 169 173 167 160 159 162 168
282 267 259 261 287 315 289 290 284 266 255 260 269 240 176 311 301 302 126 142 145 149 148 148 148 153 157 159 161 165 169 170 169 169 168 165 168 168 167 162 160 162 165 170
253 255 258 267 270 257 268 283 291 289 277 275 278 275 206 197 219 214 171 155 153 155 156 152 150 151 154 155 158 162 164 163 162 164 165 163 164 161 162 161 159 161 165 170
232 261 271 271 270 263 254 252 264 274 279 282 284 284 245 190 170 204 164 158 164 160 159 157 153 153 154 155 156 156 155 153 148 152 155 158 161 164 164 158 152 148 145 137
249 250 261 266 272 274 260 247 249 259 267 276 282 297 11 153 160 183 173 166 166 157 159 157 157 154 153 152 150 150 146 141 140 145 148 149 154 155 152 151 143 142 139 126
256 263 260 261 267 264 269 276 272 270 275 295 310 318 342 324 109 119 151 153 141 148 155 153 157 154 152 151 147 142 142 142 146 148 150 146 144 142 138 134 132 130 119 113
242 244 253 260 258 259 264 278 283 286 294 338 339 346 355 351 31 77 90 107 124 138 131 129 138 142 140 140 140 140 137 133 135 139 137 139 139 134 130 127 120 112 107 101
223 218 237 248 256 261 276 320 336 299 268 14 16 12 358 350 313 32 70 83 91 101 106 109 113 116 118 121 125 126 126 126 128 126 123 121 122 121 119 115 111 107 105 101
216 213 227 244 252 259 300 323 316 281 343 17 18 18 18 14 33 86 81 83 82 89 96 100 102 105 106 110 112 114 116 118 120 118 115 112 111 111 111 107 106 105 101 98
231 234 232 241 247 249 8 356 2 9 7 6 5 10 26 46 73 92 91 90 91 90 92 95 96 97 100 106 109 105 103 105 107 106 104 104 103 103 103 102 100 101 105 108
240 257 262 255 272 15 18 9 11 358 350 350 345 350 38 83 106 105 100 97 95 96 94 94 97 94 91 94 101 104 103 103 102 99 97 94 91 90 94 98 101 103 106 107
275 298 281 274 282 326 347 354 360 354 348 342 338 348 54 124 122 118 111 104 100 96 96 97 96 93 90 90 92 97 99 98 98 97 94 92 90 85 76 74 75 71 64 73
303 308 284 273 285 304 325 334 338 347 350 349 15 49 98 119 121 118 112 107 104 100 98 97 96 95 93 89 88 89 92 96 97 97 95 93 90 87 79 71 64 72 60 67
291 292 282 287 331 315 312 328 340 345 354 17 59 73 96 110 114 113 109 106 104 102 99 97 96 95 94 91 88 86 87 92 98 101 100 100 101 101 101 96 81 61 71 72
Height
1471 1473 1470 1463 1456 1454 1452 1452 1452 1444 1436 1440 1441 1440 1440 1442 1445 1450 1455 1460 1466 1471 1475 1479 1482 1485 1487 1489 1492 1496 1500 1504 1508 1513 1517 1521 1524 1528 1531 1534 1537 1540 1542 1544
1467 1467 1459 1453 1450 1448 1450 1452 1450 1442 1436 1438 1439 1439 1437 1441 1444 1449 1453 1457 1462 1468 1473 1477 1480 1483 1486 1488 1492 1495 1499 1503 1507 1511 1516 1520 1524 1527 1530 1533 1536 1538 1541 1543
1463 1455 1448 1449 1450 1451 1450 1451 1449 1446 1439 1435 1440 1445 1443 1440 1444 1448 1451 1454 1459 1464 1469 1474 1478 1482 1485 1488 1491 1494 1497 1502 1506 1510 1515 1519 1523 1526 1529 1532 1534 1537 1540 1542
1453 1447 1445 1445 1447 1447 1452 1441 1441 1442 1446 1448 1445 1460 1448 1443 1446 1448 1450 1452 1456 1462 1467 1472 1476 1480 1483 1486 1489 1493 1496 1500 1504 1508 1512 1516 1520 1523 1526 1530 1533 1536 1538 1540
1446 1442 1443 1444 1442 1441 1442 1436 1437 1440 1445 1451 1449 1457 1448 1442 1447 1448 1446 1449 1454 1459 1465 1470 1475 1478 1482 1485 1488 1491 1495 1498 1502 1506 1510 1515 1518 1522 1525 1529 1532 1534 1536 1539
1438 1433 1433 1435 1433 1434 1435 1438 1439 1441 1448 1466 1456 1459 1453 1440 1440 1440 1441 1446 1452 1458 1463 1469 1473 1477 1480 1483 1486 1489 1493 1496 1500 1504 1509 1513 1516 1520 1523 1527 1530 1532 1535 1537
1443 1434 1429 1429 1435 1433 1435 1448 1462 1466 1470 1472 1460 1461 1449 1431 1429 1431 1436 1443 1450 1456 1462 1467 1472 1475 1478 1481 1484 1487 1490 1494 1498 1502 1506 1510 1514 1518 1521 1524 1528 1531 1533 1536
1444 1442 1427 1425 1431 1436 1434 1441 1462 1474 1473 1473 1470 1473 1450 1427 1428 1430 1434 1441 1448 1455 1460 1465 1470 1473 1476 1480 1483 1485 1489 1492 1496 1500 1504 1508 1512 1516 1520 1523 1526 1529 1532 1535
1435 1433 1415 1415 1420 1427 1436 1435 1431 1443 1451 1460 1462 1458 1444 1431 1430 1431 1434 1440 1447 1453 1458 1464 1468 1472 1475 1478 1481 1484 1487 1490 1494 1498 1502 1506 1510 1514 1518 1521 1525 1528 1531 1534
1426 1434 1420 1415 1418 1420 1424 1427 1433 1443 1459 1464 1457 1459 1457 1447 1436 1432 1434 1439 1445 1451 1456 1462 1467 1471 1475 1478 1481 1484 1487 1490 1494 1497 1501 1505 1508 1512 1516 1520 1523 1527 1530 1533
1422 1433 1428 1420 1425 1427 1426 1430 1433 1435 1438 1455 1465 1465 1445 1445 1439 1435 1434 1437 1443 1448 1454 1460 1466 1470 1474 1477 1480 1484 1486 1490 1493 1496 1500 1504 1508 1511 1515 1518 1522 1525 1528 1531
1420 1427 1433 1424 1414 1414 1417 1422 1428 1444 1445 1440 1448 1457 1436 1437 1436 1434 1434 1436 1441 1447 1452 1458 1464 1469 1473 1477 1480 1483 1486 1489 1492 1496 1499 1503 1506 1510 1514 1517 1520 1524 1527 1529
1425 1430 1443 1440 1430 1418 1419 1418 1420 1425 1433 1439 1446 1453 1433 1433 1433 1431 1432 1435 1441 1446 1451 1457 1462 1467 1472 1476 1479 1483 1486 1489 1492 1495 1499 1502 1505 1509 1512 1515 1519 1522 1525 1528
1429 1433 1439 1444 1438 1432 1433 1427 1424 1427 1434 1437 1436 1440 1436 1434 1433 1434 1435 1437 1441 1446 1451 1456 1461 1466 1471 1474 1478 1481 1485 1488 1492 1495 1498 1501 1504 1507 1511 1514 1517 1521 1524 1526
1429 1435 1433 1429 1426 1428 1435 1436 1433 1432 1428 1431 1429 1430 1431 1431 1432 1434 1436 1437 1441 1446 1450 1455 1460 1465 1469 1473 1477 1481 1484 1488 1491 1494 1497 1500 1503 1507 1510 1513 1516 1519 1522 1525
1429 1436 1435 1435 1428 1428 1434 1433 1433 1432 1427 1424 1422 1424 1421 1425 1429 1432 1434 1437 1441 1445 1450 1454 1459 1463 1468 1472 1476 1479 1483 1486 1490 1493 1496 1499 1503 1506 1509 1512 1515 1518 1521 1524
1431 1438 1443 1443 1433 1432 1438 1429 1429 1428 1422 1422 1425 1422 1420 1423 1427 1431 1434 1437 1441 1443 1448 1453 1457 1461 1466 1470 1474 1478 1482 1485 1489 1492 1495 1498 1502 1505 1507 1510 1513 1516 1519 1522
1435 1439 1442 1443 1444 1455 1432 1416 1416 1419 1418 1417 1418 1419 1421 1424 1427 1429 1433 1436 1439 1444 1447 1452 1456 1460 1465 1470 1473 1477 1481 1484 1488 1491 1494 1497 1500 1503 1506 1509 1512 1515 1518 1520
1429 1437 1443 1444 1445 1440 1425 1417 1417 1420 1423 1421 1421 1422 1424 1425 1427 1430 1433 1435 1438 1443 1446 1450 1454 1458 1463 1468 1472 1476 1480 1483 1487 1490 1494 1497 1499 1502 1506 1509 1511 1514 1516 1519
1428 1433 1443 1444 1449 1448 1430 1418 1417 1421 1429 1428 1427 1428 1429 1428 1431 1436 1436 1437 1438 1442 1446 1450 1454 1458 1462 1467 1471 1475 1479 1483 1486 1489 1492 1496 1499 1502 1505 1508 1510 1513 1516 1518
1434 1437 1442 1445 1446 1437 1425 1421 1422 1436 1439 1433 1432 1433 1434 1434 1437 1440 1439 1440 1442 1444 1447 1451 1455 1459 1463 1466 1470 1474 1478 1482 1486 1489 1493 1496 1499 1502 1505 1508 1511 1513 1515 1518
1436 1440 1441 1441 1446 1442 1430 1427 1433 1439 1437 1436 1436 1437 1438 1439 1439 1440 1442 1443 1446 1447 1450 1453 1457 1460 1464 1468 1471 1474 1479 1483 1486 1490 1493 1496 1500 1503 1506 1508 1511 1513 1516 1518
1432 1435 1437 1438 1440 1436 1435 1436 1437 1438 1438 1438 1438 1438 1439 1441 1442 1443 1445 1447 1450 1451 1453 1456 1459 1463 1467 1471 1473 1476 1481 1484 1488 1491 1494 1498 1501 1504 1507 1510 1512 1515 1517 1519
1433 1433 1433 1435 1434 1436 1437 1437 1438 1439 1439 1439 1439 1439 1439 1440 1443 1445 1448 1451 1453 1455 1458 1460 1463 1466 1471 1474 1477 1480 1484 1487 1490 1493 1497 1500 1503 1506 1509 1512 1514 1516 1518 1520
1434 1435 1436 1436 1436 1437 1438 1439 1440 1440 1440 1439 1439 1440 1440 1441 1444 1447 1450 1454 1456 1459 1462 1465 1467 1471 1475 1478 1481 1485 1488 1491 1493 1497 1500 1503 1506 1508 1511 1513 1515 1518 1520 1521
1435 1437 1439 1439 1439 1440 1441 1440 1440 1440 1440 1440 1441 1441 1443 1444 1446 1449 1453 1456 1460 1463 1466 1469 1472 1476 1480 1483 1485 1489 1492 1495 1498 1501 1504 1507 1509 1511 1514 1515 1517 1520 1521 1523